Location: Newark
(29.9790°N, 31.1340°E)
Time: 12:26:29
(UTC+00:00)

Transit 2A Rocket - Pass Details

Date: 20 January 2020
Orbit: 592 x 911 km, 66.7° (Epoch: 19 February)

Event Time Altitude Azimuth Distance (km) Brightness Sun altitude
Rises 13:01:04 0° 347° (NNW) 3,052 7.8 24.6°
Reaches altitude 10° 13:03:32 10° 357° (N) 2,185 7.1 24.2°
Maximum altitude 13:08:01 33° 61° (ENE) 1,253 5.9 23.5°
Drops below altitude 10° 13:12:52 10° 125° (SE) 2,370 7.5 22.7°
Sets 13:15:38 0° 134° (SE) 3,352 8.3 22.3°
